| time (UTC) | temp F | wind direction | speed MPH | gust MPH | rain 1hr in | rain 24hr in | rain mn in | humidity % | barometer mb |
| 20260502235015 | 60 | 230 | 4.0 | 9.0 | 0.00 | 0.00 | 0.00 | 43 | 1011.9 |
| 20260502234542 | 60 | 247 | 3.0 | 10.0 | 0.00 | 0.00 | 0.00 | 42 | 1011.9 |
| 20260502234014 | 60 | 232 | 4.0 | 10.0 | 0.00 | 0.00 | 0.00 | 43 | 1011.9 |
| 20260502233512 | 60 | 238 | 4.0 | 7.0 | 0.00 | 0.00 | 0.00 | 42 | 1012.0 |
| 20260502233033 | 60 | 216 | 3.0 | 9.0 | 0.00 | 0.00 | 0.00 | 42 | 1012.0 |
| 20260502232515 | 60 | 215 | 5.0 | 9.0 | 0.00 | 0.00 | 0.00 | 41 | 1012.1 |
| 20260502232015 | 60 | 220 | 3.0 | 10.0 | 0.00 | 0.00 | 0.00 | 41 | 1012.1 |
| 20260502231532 | 60 | 229 | 6.0 | 10.0 | 0.00 | 0.00 | 0.00 | 40 | 1012.2 |
| 20260502231015 | 60 | 231 | 5.0 | 11.0 | 0.00 | 0.00 | 0.00 | 41 | 1012.2 |
| 20260502230515 | 60 | 242 | 7.0 | 11.0 | 0.00 | 0.00 | 0.00 | 40 | 1012.3 |
| 20260502230034 | 60 | 236 | 5.0 | 12.0 | 0.00 | 0.00 | 0.00 | 41 | 1012.3 |
| 20260502225514 | 60 | 232 | 4.0 | 12.0 | 0.00 | 0.00 | 0.00 | 40 | 1012.3 |
| 20260502225014 | 60 | 207 | 5.0 | 12.0 | 0.00 | 0.00 | 0.00 | 42 | 1012.4 |
| 20260502224534 | 60 | 251 | 4.0 | 14.0 | 0.00 | 0.00 | 0.00 | 42 | 1012.5 |
| 20260502224016 | 60 | 276 | 6.0 | 14.0 | 0.00 | 0.00 | 0.00 | 40 | 1012.6 |
| 20260502223514 | 60 | 279 | 7.0 | 12.0 | 0.00 | 0.00 | 0.00 | 40 | 1012.8 |
| 20260502223034 | 61 | 231 | 6.0 | 11.0 | 0.00 | 0.00 | 0.00 | 40 | 1012.9 |
| 20260502222513 | 61 | 232 | 6.0 | 11.0 | 0.00 | 0.00 | 0.00 | 40 | 1013.0 |
| 20260502222015 | 60 | 244 | 5.0 | 10.0 | 0.00 | 0.00 | 0.00 | 41 | 1013.0 |
| 20260502221533 | 60 | 244 | 4.0 | 10.0 | 0.00 | 0.00 | 0.00 | 41 | 1013.1 |
| 20260502221015 | 60 | 225 | 5.0 | 12.0 | 0.00 | 0.00 | 0.00 | 40 | 1013.2 |
| 20260502220514 | 61 | 252 | 7.0 | 12.0 | 0.00 | 0.00 | 0.00 | 39 | 1013.0 |
| 20260502220031 | 61 | 259 | 5.0 | 15.0 | 0.00 | 0.00 | 0.00 | 38 | 1013.2 |
| 20260502215517 | 61 | 251 | 7.0 | 15.0 | 0.00 | 0.00 | 0.00 | 40 | 1013.1 |
| 20260502215015 | 61 | 234 | 7.0 | 14.0 | 0.00 | 0.00 | 0.00 | 40 | 1013.2 |
| 20260502214537 | 61 | 214 | 7.0 | 14.0 | 0.00 | 0.00 | 0.00 | 39 | 1013.2 |
| 20260502214014 | 60 | 250 | 5.0 | 10.0 | 0.00 | 0.00 | 0.00 | 42 | 1013.3 |
| 20260502213514 | 59 | 242 | 4.0 | 13.0 | 0.00 | 0.00 | 0.00 | 40 | 1013.3 |
| 20260502213043 | 60 | 218 | 6.0 | 13.0 | 0.00 | 0.00 | 0.00 | 40 | 1013.5 |
| 20260502212515 | 60 | 240 | 7.0 | 13.0 | 0.00 | 0.00 | 0.00 | 40 | 1013.6 |
| 20260502212018 | 60 | 254 | 6.0 | 15.0 | 0.00 | 0.00 | 0.00 | 39 | 1013.7 |
| 20260502211537 | 61 | 194 | 8.0 | 15.0 | 0.00 | 0.00 | 0.00 | 41 | 1013.7 |
| 20260502211014 | 61 | 234 | 7.0 | 14.0 | 0.00 | 0.00 | 0.00 | 41 | 1013.6 |
| 20260502210515 | 60 | 179 | 6.0 | 14.0 | 0.00 | 0.00 | 0.00 | 39 | 1013.7 |
| 20260502210032 | 60 | 202 | 7.0 | 14.0 | 0.00 | 0.00 | 0.00 | 38 | 1013.9 |
| 20260502205517 | 60 | 201 | 6.0 | 13.0 | 0.00 | 0.00 | 0.00 | 40 | 1013.9 |
| 20260502205014 | 61 | 299 | 6.0 | 15.0 | 0.00 | 0.00 | 0.00 | 41 | 1013.8 |
| 20260502204533 | 60 | 240 | 7.0 | 15.0 | 0.00 | 0.00 | 0.00 | 39 | 1014.0 |
| 20260502204016 | 60 | 234 | 8.0 | 20.0 | 0.00 | 0.00 | 0.00 | 39 | 1014.2 |
| 20260502203514 | 60 | 229 | 10.0 | 20.0 | 0.00 | 0.00 | 0.00 | 39 | 1014.3 |
| 20260502203041 | 60 | 204 | 5.0 | 12.0 | 0.00 | 0.00 | 0.00 | 39 | 1014.2 |
| 20260502202514 | 60 | 211 | 5.0 | 12.0 | 0.00 | 0.00 | 0.00 | 39 | 1014.4 |
| 20260502202014 | 60 | 227 | 6.0 | 14.0 | 0.00 | 0.00 | 0.00 | 41 | 1014.4 |
| 20260502201538 | 60 | 220 | 8.0 | 16.0 | 0.00 | 0.00 | 0.00 | 40 | 1014.6 |
| 20260502201018 | 59 | 221 | 8.0 | 16.0 | 0.00 | 0.00 | 0.00 | 40 | 1014.6 |
| 20260502200516 | 60 | 264 | 5.0 | 12.0 | 0.00 | 0.00 | 0.00 | 38 | 1014.7 |
| 20260502200036 | 59 | 250 | 6.0 | 16.0 | 0.00 | 0.00 | 0.00 | 41 | 1014.8 |
| 20260502195514 | 60 | 307 | 5.0 | 16.0 | 0.00 | 0.00 | 0.00 | 39 | 1014.8 |
| 20260502195016 | 59 | 327 | 7.0 | 16.0 | 0.00 | 0.00 | 0.00 | 42 | 1015.0 |
| 20260502194535 | 59 | 238 | 4.0 | 18.0 | 0.00 | 0.00 | 0.00 | 39 | 1015.1 |
| 20260502194014 | 59 | 242 | 8.0 | 18.0 | 0.00 | 0.00 | 0.00 | 39 | 1015.2 |
| 20260502193515 | 59 | 226 | 8.0 | 15.0 | 0.00 | 0.00 | 0.00 | 45 | 1015.3 |
| 20260502193050 | 58 | 216 | 6.0 | 16.0 | 0.00 | 0.00 | 0.00 | 42 | 1015.3 |
| 20260502192518 | 59 | 252 | 10.0 | 19.0 | 0.00 | 0.00 | 0.00 | 37 | 1015.4 |
| 20260502192018 | 58 | 201 | 10.0 | 19.0 | 0.00 | 0.00 | 0.00 | 39 | 1015.6 |
| 20260502191536 | 58 | 227 | 8.0 | 14.0 | 0.00 | 0.00 | 0.00 | 40 | 1015.6 |
| 20260502191015 | 58 | 233 | 9.0 | 14.0 | 0.00 | 0.00 | 0.00 | 39 | 1015.8 |
| 20260502190515 | 58 | 261 | 8.0 | 14.0 | 0.00 | 0.00 | 0.00 | 39 | 1015.8 |
| 20260502190036 | 58 | 259 | 6.0 | 16.0 | 0.00 | 0.00 | 0.00 | 43 | 1015.8 |
| 20260502185516 | 57 | 173 | 8.0 | 16.0 | 0.00 | 0.00 | 0.00 | 41 | 1015.9 |
| 20260502185014 | 57 | 211 | 9.0 | 15.0 | 0.00 | 0.00 | 0.00 | 41 | 1015.9 |
| 20260502184543 | 58 | 252 | 7.0 | 16.0 | 0.00 | 0.00 | 0.00 | 42 | 1016.0 |
| 20260502184014 | 57 | 245 | 8.0 | 16.0 | 0.00 | 0.00 | 0.00 | 45 | 1016.1 |
| 20260502183516 | 57 | 266 | 8.0 | 15.0 | 0.00 | 0.00 | 0.00 | 42 | 1016.2 |
| 20260502183034 | 57 | 239 | 7.0 | 15.0 | 0.00 | 0.00 | 0.00 | 41 | 1016.3 |
| 20260502182514 | 57 | 231 | 8.0 | 14.0 | 0.00 | 0.00 | 0.00 | 42 | 1016.4 |
| 20260502182013 | 57 | 286 | 7.0 | 12.0 | 0.00 | 0.00 | 0.00 | 42 | 1016.4 |
| 20260502181536 | 57 | 273 | 4.0 | 16.0 | 0.00 | 0.00 | 0.00 | 44 | 1016.4 |
| 20260502181016 | 56 | 234 | 6.0 | 16.0 | 0.00 | 0.00 | 0.00 | 42 | 1016.4 |
| 20260502180516 | 56 | 333 | 8.0 | 16.0 | 0.00 | 0.00 | 0.00 | 43 | 1016.5 |
| 20260502170517 | 55 | 295 | 5.0 | 15.0 | 0.00 | 0.00 | 0.00 | 43 | 1017.3 |
| 20260502164016 | 54 | 284 | 8.0 | 14.0 | 0.00 | 0.00 | 0.00 | 42 | 1017.4 |
| 20260502163516 | 54 | 340 | 6.0 | 18.0 | 0.00 | 0.00 | 0.00 | 40 | 1017.4 |
| 20260502163035 | 54 | 200 | 8.0 | 18.0 | 0.00 | 0.00 | 0.00 | 43 | 1017.6 |
| 20260502162516 | 54 | 254 | 8.0 | 18.0 | 0.00 | 0.00 | 0.00 | 41 | 1017.6 |
| 20260502162016 | 54 | 244 | 7.0 | 13.0 | 0.00 | 0.00 | 0.00 | 44 | 1017.8 |
| 20260502161537 | 54 | 311 | 6.0 | 13.0 | 0.00 | 0.00 | 0.00 | 47 | 1017.7 |
| 20260502161016 | 54 | 263 | 6.0 | 13.0 | 0.00 | 0.00 | 0.00 | 44 | 1017.8 |
| 20260502160517 | 53 | 250 | 6.0 | 13.0 | 0.00 | 0.00 | 0.00 | 46 | 1017.9 |
| 20260502152017 | 52 | 270 | 4.0 | 13.0 | 0.00 | 0.00 | 0.00 | 53 | 1018.2 |
| 20260502151536 | 52 | 320 | 7.0 | 15.0 | 0.00 | 0.00 | 0.00 | 49 | 1018.1 |
| 20260502151016 | 51 | 323 | 9.0 | 15.0 | 0.00 | 0.00 | 0.00 | 47 | 1018.3 |
| 20260502150513 | 51 | 310 | 8.0 | 14.0 | 0.00 | 0.00 | 0.00 | 48 | 1018.3 |
| 20260502130515 | 42 | 248 | 3.0 | 7.0 | 0.00 | 0.00 | 0.00 | 68 | 1018.6 |
| 20260502123518 | 41 | 244 | 2.0 | 4.0 | 0.00 | 0.00 | 0.00 | 70 | 1018.8 |
| 20260502123031 | 41 | 245 | 2.0 | 4.0 | 0.00 | 0.00 | 0.00 | 72 | 1018.6 |
| 20260502122516 | 40 | 245 | 2.0 | 4.0 | 0.00 | 0.00 | 0.00 | 72 | 1018.7 |
| 20260502122019 | 40 | 244 | 1.0 | 3.0 | 0.00 | 0.00 | 0.00 | 72 | 1018.5 |
| 20260502121534 | 39 | 244 | 2.0 | 3.0 | 0.00 | 0.00 | 0.00 | 73 | 1018.4 |
| 20260502121015 | 39 | 244 | 1.0 | 3.0 | 0.00 | 0.00 | 0.00 | 74 | 1018.5 |
| 20260502120518 | 39 | 244 | 2.0 | 3.0 | 0.00 | 0.00 | 0.00 | 73 | 1018.4 |
| 20260502115517 | 38 | 244 | 1.0 | 3.0 | 0.00 | 0.00 | 0.00 | 73 | 1018.3 |
| 20260502115015 | 38 | 244 | 2.0 | 3.0 | 0.00 | 0.00 | 0.00 | 73 | 1018.3 |
| 20260502114532 | 38 | 244 | 2.0 | 3.0 | 0.00 | 0.00 | 0.00 | 72 | 1018.2 |
| 20260502114021 | 38 | 244 | 1.0 | 3.0 | 0.00 | 0.00 | 0.00 | 72 | 1018.3 |
| 20260502113513 | 38 | 244 | 1.0 | 3.0 | 0.00 | 0.00 | 0.00 | 72 | 1018.3 |
| 20260502113039 | 38 | 244 | 1.0 | 3.0 | 0.00 | 0.00 | 0.00 | 72 | 1018.2 |
| 20260502112514 | 38 | 244 | 1.0 | 3.0 | 0.00 | 0.00 | 0.00 | 71 | 1018.2 |
| 20260502112012 | 38 | 244 | 1.0 | 3.0 | 0.00 | 0.00 | 0.00 | 71 | 1018.2 |
| 20260502111532 | 38 | 244 | 1.0 | 3.0 | 0.00 | 0.00 | 0.00 | 71 | 1018.2 |
| 20260502111016 | 38 | 244 | 1.0 | 2.0 | 0.00 | 0.00 | 0.00 | 71 | 1018.1 |
| 20260502110516 | 38 | 244 | 1.0 | 3.0 | 0.00 | 0.00 | 0.00 | 71 | 1018.1 |
| 20260502110036 | 38 | 244 | 1.0 | 3.0 | 0.00 | 0.00 | 0.00 | 71 | 1018.1 |
| 20260502105516 | 38 | 244 | 1.0 | 3.0 | 0.00 | 0.00 | 0.00 | 71 | 1018.2 |
| 20260502105015 | 38 | 244 | 1.0 | 2.0 | 0.00 | 0.00 | 0.00 | 71 | 1018.1 |
| 20260502104536 | 38 | 244 | 1.0 | 3.0 | 0.00 | 0.00 | 0.00 | 72 | 1018.0 |
| 20260502104014 | 38 | 244 | 1.0 | 3.0 | 0.00 | 0.00 | 0.00 | 72 | 1018.1 |
| 20260502103517 | 38 | 244 | 1.0 | 3.0 | 0.00 | 0.00 | 0.00 | 73 | 1018.1 |
| 20260502103031 | 38 | 244 | 1.0 | 3.0 | 0.00 | 0.00 | 0.00 | 72 | 1018.1 |
| 20260502102516 | 38 | 244 | 2.0 | 3.0 | 0.00 | 0.00 | 0.00 | 72 | 1018.1 |
| 20260502102015 | 38 | 244 | 2.0 | 3.0 | 0.00 | 0.00 | 0.00 | 72 | 1018.1 |
| 20260502101538 | 38 | 244 | 2.0 | 4.0 | 0.00 | 0.00 | 0.00 | 72 | 1018.2 |
| 20260502101014 | 38 | 244 | 2.0 | 4.0 | 0.00 | 0.00 | 0.00 | 72 | 1018.2 |
| 20260502100514 | 39 | 244 | 2.0 | 3.0 | 0.00 | 0.00 | 0.00 | 72 | 1018.2 |
| 20260502091018 | 39 | 244 | 3.0 | 5.0 | 0.00 | 0.00 | 0.00 | 74 | 1018.3 |
| 20260502090518 | 40 | 244 | 3.0 | 5.0 | 0.00 | 0.00 | 0.00 | 74 | 1018.3 |
| 20260502071533 | 42 | 244 | 1.0 | 3.0 | 0.00 | 0.00 | 0.00 | 60 | 1018.4 |
| 20260502071014 | 42 | 244 | 1.0 | 5.0 | 0.00 | 0.00 | 0.00 | 59 | 1018.5 |
| 20260502070518 | 42 | 244 | 2.0 | 5.0 | 0.00 | 0.00 | 0.00 | 60 | 1018.5 |
| 20260502070053 | 42 | 306 | 1.0 | 3.0 | 0.00 | 0.00 | 0.00 | 58 | 1018.5 |
| 20260502065515 | 42 | 306 | 2.0 | 3.0 | 0.00 | 0.00 | 0.00 | 57 | 1018.4 |
| 20260502065019 | 42 | 306 | 1.0 | 3.0 | 0.00 | 0.00 | 0.00 | 58 | 1018.5 |
| 20260502064533 | 42 | 306 | 1.0 | 3.0 | 0.00 | 0.00 | 0.00 | 57 | 1018.6 |
| 20260502064014 | 42 | 306 | 2.0 | 3.0 | 0.00 | 0.00 | 0.00 | 57 | 1018.6 |
| 20260502063518 | 42 | 306 | 1.0 | 2.0 | 0.00 | 0.00 | 0.00 | 58 | 1018.7 |
| 20260502063035 | 43 | 306 | 0.0 | 3.0 | 0.00 | 0.00 | 0.00 | 61 | 1018.7 |
| 20260502062516 | 43 | 306 | 0.0 | 3.0 | 0.00 | 0.00 | 0.00 | 60 | 1018.7 |
| 20260502062015 | 43 | 306 | 1.0 | 3.0 | 0.00 | 0.00 | 0.00 | 60 | 1018.8 |
| 20260502061533 | 43 | 306 | 1.0 | 3.0 | 0.00 | 0.00 | 0.00 | 58 | 1018.7 |
| 20260502061015 | 43 | 306 | 1.0 | 3.0 | 0.00 | 0.00 | 0.00 | 56 | 1018.7 |
| 20260502060515 | 43 | 306 | 1.0 | 3.0 | 0.00 | 0.00 | 0.00 | 55 | 1018.7 |
| 20260502060041 | 43 | 306 | 0.0 | 2.0 | 0.00 | 0.00 | 0.00 | 55 | 1018.7 |
| 20260502055515 | 43 | 0 | 0.0 | 3.0 | 0.00 | 0.00 | 0.00 | 54 | 1018.6 |
| 20260502055018 | 43 | 306 | 1.0 | 3.0 | 0.00 | 0.00 | 0.00 | 54 | 1018.6 |
| 20260502054541 | 44 | 306 | 1.0 | 3.0 | 0.00 | 0.00 | 0.00 | 53 | 1018.7 |
| 20260502054014 | 44 | 306 | 1.0 | 2.0 | 0.00 | 0.00 | 0.00 | 51 | 1018.7 |
| 20260502053512 | 44 | 0 | 0.0 | 3.0 | 0.00 | 0.00 | 0.00 | 51 | 1018.6 |
| 20260502053033 | 44 | 306 | 1.0 | 3.0 | 0.00 | 0.00 | 0.00 | 51 | 1018.5 |
| 20260502052518 | 44 | 306 | 1.0 | 3.0 | 0.00 | 0.00 | 0.00 | 51 | 1018.5 |
| 20260502052014 | 44 | 306 | 0.0 | 2.0 | 0.00 | 0.00 | 0.00 | 52 | 1018.5 |
| 20260502051537 | 44 | 306 | 0.0 | 2.0 | 0.00 | 0.00 | 0.00 | 52 | 1018.5 |
| 20260502051020 | 44 | 0 | 1.0 | 2.0 | 0.00 | 0.00 | 0.00 | 52 | 1018.5 |
| 20260502050515 | 44 | 306 | 1.0 | 3.0 | 0.00 | 0.00 | 0.00 | 54 | 1018.5 |
| 20260502050032 | 44 | 306 | 1.0 | 3.0 | 0.00 | 0.00 | 0.00 | 57 | 1018.5 |
| 20260502045515 | 44 | 306 | 1.0 | 4.0 | 0.00 | 0.00 | 0.00 | 57 | 1018.5 |
| 20260502045015 | 44 | 306 | 2.0 | 4.0 | 0.00 | 0.00 | 0.00 | 53 | 1018.4 |
| 20260502044530 | 45 | 308 | 2.0 | 4.0 | 0.00 | 0.00 | 0.00 | 52 | 1018.5 |
| 20260502044015 | 45 | 317 | 2.0 | 3.0 | 0.00 | 0.00 | 0.00 | 52 | 1018.4 |
| 20260502043513 | 45 | 317 | 1.0 | 4.0 | 0.00 | 0.00 | 0.00 | 51 | 1018.4 |
| 20260502043033 | 45 | 317 | 1.0 | 4.0 | 0.00 | 0.00 | 0.00 | 52 | 1018.4 |
| 20260502042515 | 45 | 317 | 1.0 | 3.0 | 0.00 | 0.00 | 0.00 | 54 | 1018.4 |
| 20260502042017 | 45 | 336 | 1.0 | 3.0 | 0.00 | 0.00 | 0.00 | 53 | 1018.4 |
| 20260502041553 | 45 | 336 | 0.0 | 3.0 | 0.00 | 0.00 | 0.00 | 50 | 1018.3 |
| 20260502041014 | 46 | 336 | 1.0 | 3.0 | 0.00 | 0.00 | 0.00 | 50 | 1018.4 |
| 20260502040513 | 46 | 336 | 1.0 | 2.0 | 0.00 | 0.00 | 0.00 | 47 | 1018.5 |
| 20260502040048 | 46 | 0 | 0.0 | 2.0 | 0.00 | 0.00 | 0.00 | 46 | 1018.5 |
| 20260502035514 | 46 | 336 | 0.0 | 3.0 | 0.00 | 0.00 | 0.00 | 44 | 1018.5 |
| 20260502035013 | 46 | 336 | 1.0 | 3.0 | 0.00 | 0.00 | 0.00 | 44 | 1018.4 |
| 20260502034534 | 46 | 336 | 1.0 | 3.0 | 0.00 | 0.00 | 0.00 | 44 | 1018.6 |
| 20260502034014 | 46 | 336 | 1.0 | 3.0 | 0.00 | 0.00 | 0.00 | 45 | 1018.5 |
| 20260502033514 | 46 | 336 | 0.0 | 2.0 | 0.00 | 0.00 | 0.00 | 42 | 1018.6 |
| 20260502033033 | 46 | 0 | 0.0 | 2.0 | 0.00 | 0.00 | 0.00 | 41 | 1018.6 |
| 20260502032512 | 46 | 336 | 1.0 | 2.0 | 0.00 | 0.00 | 0.00 | 42 | 1018.6 |
| 20260502032014 | 46 | 336 | 1.0 | 2.0 | 0.00 | 0.00 | 0.00 | 43 | 1018.6 |
| 20260502031534 | 46 | 0 | 1.0 | 2.0 | 0.00 | 0.00 | 0.00 | 43 | 1018.6 |
| 20260502031014 | 46 | 336 | 1.0 | 2.0 | 0.00 | 0.00 | 0.00 | 44 | 1018.7 |
| 20260502030515 | 45 | 336 | 1.0 | 2.0 | 0.00 | 0.00 | 0.00 | 45 | 1018.6 |
| 20260502030049 | 45 | 336 | 0.0 | 2.0 | 0.00 | 0.00 | 0.00 | 45 | 1018.6 |
| 20260502025513 | 45 | 336 | 0.0 | 2.0 | 0.00 | 0.00 | 0.00 | 45 | 1018.6 |
| 20260502025018 | 45 | 0 | 0.0 | 2.0 | 0.00 | 0.00 | 0.00 | 45 | 1018.5 |
| 20260502024531 | 46 | 0 | 0.0 | 2.0 | 0.00 | 0.00 | 0.00 | 44 | 1018.5 |
| 20260502024013 | 45 | 336 | 0.0 | 2.0 | 0.00 | 0.00 | 0.00 | 44 | 1018.5 |
| 20260502023516 | 45 | 336 | 0.0 | 2.0 | 0.00 | 0.00 | 0.00 | 44 | 1018.4 |
| 20260502023047 | 46 | 0 | 0.0 | 2.0 | 0.00 | 0.00 | 0.00 | 44 | 1018.4 |
| 20260502022511 | 46 | 336 | 0.0 | 2.0 | 0.00 | 0.00 | 0.00 | 44 | 1018.4 |
| 20260502022013 | 46 | 336 | 0.0 | 2.0 | 0.00 | 0.00 | 0.00 | 44 | 1018.4 |
| 20260502021532 | 46 | 336 | 0.0 | 1.0 | 0.00 | 0.00 | 0.00 | 44 | 1018.3 |
| 20260502021013 | 46 | 0 | 0.0 | 1.0 | 0.00 | 0.00 | 0.00 | 44 | 1018.4 |
| 20260502020512 | 46 | 0 | 0.0 | 2.0 | 0.00 | 0.00 | 0.00 | 44 | 1018.3 |
| 20260502020032 | 46 | 0 | 0.0 | 2.0 | 0.00 | 0.00 | 0.00 | 44 | 1018.4 |
| 20260502015513 | 46 | 336 | 0.0 | 2.0 | 0.00 | 0.00 | 0.00 | 44 | 1018.3 |
| 20260502015013 | 46 | 0 | 0.0 | 2.0 | 0.00 | 0.00 | 0.00 | 44 | 1018.2 |
| 20260502014537 | 46 | 336 | 0.0 | 2.0 | 0.00 | 0.00 | 0.00 | 43 | 1018.2 |
| 20260502014013 | 47 | 336 | 0.0 | 2.0 | 0.00 | 0.00 | 0.00 | 43 | 1018.2 |
| 20260502013512 | 47 | 336 | 1.0 | 2.0 | 0.00 | 0.00 | 0.00 | 43 | 1018.2 |
| 20260502013032 | 47 | 336 | 1.0 | 2.0 | 0.00 | 0.00 | 0.00 | 43 | 1018.1 |
| 20260502012515 | 47 | 336 | 0.0 | 2.0 | 0.00 | 0.00 | 0.00 | 43 | 1017.9 |
| 20260502012014 | 47 | 336 | 0.0 | 2.0 | 0.00 | 0.00 | 0.00 | 42 | 1017.9 |
| 20260502011543 | 47 | 0 | 0.0 | 3.0 | 0.00 | 0.00 | 0.00 | 42 | 1017.9 |
| 20260502011014 | 48 | 336 | 0.0 | 3.0 | 0.00 | 0.00 | 0.00 | 41 | 1017.8 |
| 20260502010514 | 48 | 336 | 1.0 | 3.0 | 0.00 | 0.00 | 0.00 | 41 | 1017.9 |
| 20260502010033 | 48 | 0 | 0.0 | 3.0 | 0.00 | 0.00 | 0.00 | 42 | 1017.9 |
| 20260502005514 | 48 | 336 | 1.0 | 4.0 | 0.00 | 0.00 | 0.00 | 41 | 1017.9 |
| 20260502005013 | 48 | 336 | 1.0 | 7.0 | 0.00 | 0.00 | 0.00 | 42 | 1017.8 |
| 20260502004532 | 48 | 336 | 3.0 | 7.0 | 0.00 | 0.00 | 0.00 | 43 | 1017.8 |
| 20260502004013 | 48 | 346 | 2.0 | 4.0 | 0.00 | 0.00 | 0.00 | 43 | 1017.8 |
| 20260502003512 | 48 | 346 | 2.0 | 9.0 | 0.00 | 0.00 | 0.00 | 43 | 1017.8 |
| 20260502003032 | 48 | 26 | 2.0 | 9.0 | 0.00 | 0.00 | 0.00 | 42 | 1017.8 |
| 20260502002513 | 48 | 26 | 3.0 | 9.0 | 0.00 | 0.00 | 0.00 | 42 | 1017.8 |
| 20260502002015 | 48 | 360 | 4.0 | 9.0 | 0.00 | 0.00 | 0.00 | 40 | 1017.6 |
| 20260502001539 | 48 | 14 | 4.0 | 11.0 | 0.00 | 0.00 | 0.00 | 41 | 1017.8 |
| 20260502001013 | 48 | 323 | 3.0 | 11.0 | 0.00 | 0.00 | 0.00 | 42 | 1017.8 |
| 20260502000514 | 49 | 316 | 5.0 | 11.0 | 0.00 | 0.00 | 0.00 | 40 | 1017.7 |
| 20260502000050 | 49 | 22 | 2.0 | 10.0 | 0.00 | 0.00 | 0.00 | 44 | 1017.7 |
| 20260501235512 | 49 | 24 | 4.0 | 10.0 | 0.00 | 0.00 | 0.00 | 40 | 1017.6 |